Chillicothe, MO

6:38 AM CDT on March 29, 2017 (GMT -0500)
Chillicothe

Weather History for KCDJ - February, 2014

Change the Weather History Date:

Monday, February 24, 2014

  Actual Average (KIRK) Record (KIRK)
Temperature  
Mean Temperature 24 °F -  
Max Temperature 28 °F 40 °F 77 °F (1930)
Min Temperature 21 °F 22 °F -1 °F (1967)
Degree Days  
Heating Degree Days 40    
Moisture  
Dew Point 13 °F    
Average Humidity 56    
Maximum Humidity 75    
Minimum Humidity 47    
Precipitation  
Precipitation 0.00 in - - ()
Sea Level Pressure  
Sea Level Pressure 30.38 in    
Wind  
Wind Speed 3 mph (NE)    
Max Wind Speed 9 mph    
Max Gust Speed -    
Averages and records for this station are not official NWS values.
T = Trace of Precipitation, MM = Missing Value Source: NWS Daily Summary

Daily Weather History Graph

Daily Weather History Graph

Search for Another Location

Airport or City:

Trip Planner

Search our weather history database for the weather conditions in past years. The results will help you decide how hot, cold, wet, or windy it might be!

Date:

Astronomy

Feb. 24, 2014 Rise Set
Actual Time 6:54 AM CST 6:00 PM CST
Civil Twilight 6:27 AM CST 6:28 PM CST
Nautical Twilight 5:56 AM CST 6:59 PM CST
Astronomical Twilight 5:24 AM CST 7:30 PM CST
Moon 2:53 AM CST (2/24) 1:02 PM CST (2/24)
Length of Visible Light 12h 00m
Length of Day
11h 06m
Waning Crescent, 28% of the Moon is Illuminated
Feb 24
Waning Crescent
Mar 1
New
Mar 8
First Quarter
Mar 16
Full
Mar 23
Last Quarter

Hourly Weather History & Observations

Time (CST) Temp. Windchill Dew Point Humidity Pressure Visibility Wind Dir Wind Speed Gust Speed Precip Events Conditions
12:52 AM 21.9 °F - 15.1 °F 75% 30.44 in - Calm Calm - N/A   Unknown
1:52 AM 24.1 °F - 16.0 °F 71% 30.41 in - Calm Calm - N/A   Unknown
2:52 AM 24.1 °F - 16.0 °F 71% 30.41 in - Calm Calm - N/A   Unknown
3:52 AM 25.0 °F - 15.1 °F 66% 30.42 in - Calm Calm - N/A   Unknown
4:52 AM 25.0 °F - 14.0 °F 63% 30.43 in - Calm Calm - N/A   Unknown
5:52 AM 26.1 °F 20.5 °F 14.0 °F 60% 30.40 in - NNE 4.6 mph - N/A   Unknown
6:52 AM 26.1 °F 21.9 °F 15.1 °F 63% 30.41 in - North 3.5 mph - N/A   Unknown
7:52 AM 27.0 °F 23.0 °F 14.0 °F 58% 30.42 in - NE 3.5 mph - N/A   Unknown
8:52 AM 28.0 °F 20.8 °F 12.9 °F 53% 30.44 in - ENE 6.9 mph - N/A   Unknown
9:52 AM 28.0 °F 22.8 °F 12.0 °F 51% 30.46 in - ENE 4.6 mph - N/A   Unknown
10:52 AM 28.0 °F 24.2 °F 12.0 °F 51% 30.45 in - NE 3.5 mph - N/A   Unknown
11:52 AM 28.0 °F 24.2 °F 12.0 °F 51% 30.43 in - Variable 3.5 mph - N/A   Unknown
12:52 PM 28.9 °F 23.9 °F 10.9 °F 47% 30.40 in - East 4.6 mph - N/A   Unknown
1:52 PM 28.9 °F 21.9 °F 12.0 °F 49% 30.36 in - East 6.9 mph - N/A   Unknown
2:52 PM 28.9 °F 21.9 °F 10.9 °F 47% 30.33 in - Variable 6.9 mph - N/A   Unknown
3:52 PM 28.9 °F 21.9 °F 12.9 °F 51% 30.31 in - ENE 6.9 mph - N/A   Unknown
4:52 PM 28.9 °F 20.4 °F 12.9 °F 51% 30.29 in - East 9.2 mph - N/A   Unknown
5:52 PM 28.9 °F 21.1 °F 10.9 °F 47% 30.30 in - East 8.1 mph - N/A   Unknown
6:52 PM 28.9 °F 21.1 °F 12.0 °F 49% 30.30 in - ENE 8.1 mph - N/A   Unknown
7:52 PM 28.0 °F 21.7 °F 12.9 °F 53% 30.31 in - NE 5.8 mph - N/A   Unknown
8:52 PM 28.0 °F 20.8 °F 12.9 °F 53% 30.31 in - NE 6.9 mph - N/A   Unknown
9:52 PM 28.0 °F 21.7 °F 12.9 °F 53% 30.33 in - NE 5.8 mph - N/A   Unknown
10:52 PM 28.0 °F - 12.9 °F 53% 30.32 in - Calm Calm - N/A   Unknown
11:52 PM 27.0 °F 20.5 °F 12.9 °F 56% 30.34 in - North 5.8 mph - N/A   Unknown